GW5874 Weather Reports


Display with metric or nautical units.
time (UTC)temp
F
wind
direction
speed
MPH
gust
MPH
rain 1hr
in
rain 24hr
in
rain mn
in
humidity
%
barometer
mb
20260504213526 78 221 4.0 5.0 0.00 0.00 0.00 51 1004.9
20260504213023 78 213 12.0 18.0 0.00 0.00 0.00 48 1004.9
20260504212519 78 193 6.0 7.0 0.00 0.00 0.00 52 1005.0
20260504212017 78 209 8.0 10.0 0.00 0.00 0.00 50 1005.0
20260504211513 79 194 10.0 12.0 0.00 0.00 0.00 50 1005.1
20260504211011 78 197 5.0 7.0 0.00 0.00 0.00 51 1005.3
20260504210508 78 198 5.0 7.0 0.00 0.00 0.00 51 1005.3
20260504210004 78 192 8.0 15.0 0.00 0.00 0.00 50 1005.2
20260504205502 79 238 10.0 14.0 0.00 0.00 0.00 49 1005.4
20260504205000 79 270 3.0 4.0 0.00 0.00 0.00 51 1005.3
20260504204458 79 210 7.0 10.0 0.00 0.00 0.00 53 1005.6
20260504203957 80 193 5.0 8.0 0.00 0.00 0.00 53 1005.4
20260504203454 79 341 4.0 7.0 0.00 0.00 0.00 49 1005.5
20260504202950 79 243 7.0 8.0 0.00 0.00 0.00 50 1005.6
20260504202446 79 222 8.0 10.0 0.00 0.00 0.00 51 1005.5
20260504201943 80 144 11.0 14.0 0.00 0.00 0.00 49 1005.9
20260504201441 79 267 3.0 5.0 0.00 0.00 0.00 52 1005.9
20260504200938 79 278 4.0 5.0 0.00 0.00 0.00 52 1006.0
20260504200435 79 283 13.0 18.0 0.00 0.00 0.00 49 1006.1
20260504195931 78 213 8.0 12.0 0.00 0.00 0.00 52 1006.2
20260504195427 79 211 11.0 15.0 0.00 0.00 0.00 50 1006.1
20260504194924 78 105 9.0 15.0 0.00 0.00 0.00 52 1006.0
20260504194420 80 163 9.0 11.0 0.00 0.00 0.00 50 1006.1
20260504193916 79 192 4.0 5.0 0.00 0.00 0.00 53 1006.1
20260504193414 78 206 14.0 21.0 0.00 0.00 0.00 50 1006.1
20260504192912 78 178 5.0 10.0 0.00 0.00 0.00 51 1006.1
20260504192409 78 188 9.0 14.0 0.00 0.00 0.00 50 1006.3
20260504191908 78 185 12.0 15.0 0.00 0.00 0.00 50 1006.3
20260504191405 78 204 11.0 14.0 0.00 0.00 0.00 49 1006.1
20260504190900 78 279 17.0 23.0 0.00 0.00 0.00 48 1006.4
20260504190356 78 269 9.0 14.0 0.00 0.00 0.00 51 1006.3
20260504185853 79 233 9.0 15.0 0.00 0.00 0.00 50 1006.3
20260504185350 78 187 6.0 7.0 0.00 0.00 0.00 51 1006.4
20260504184846 78 238 11.0 18.0 0.00 0.00 0.00 49 1006.5
20260504184342 78 199 4.0 8.0 0.00 0.00 0.00 53 1006.4
20260504183838 77 190 15.0 19.0 0.00 0.00 0.00 50 1006.9
20260504183336 78 262 9.0 12.0 0.00 0.00 0.00 49 1006.8
20260504182833 77 208 15.0 19.0 0.00 0.00 0.00 50 1006.9
20260504182331 77 231 11.0 18.0 0.00 0.00 0.00 51 1006.5
20260504181827 77 211 9.0 12.0 0.00 0.00 0.00 51 1006.9
20260504181325 77 156 12.0 14.0 0.00 0.00 0.00 52 1006.9
20260504180824 77 203 10.0 12.0 0.00 0.00 0.00 50 1007.1
20260504180322 77 180 7.0 11.0 0.00 0.00 0.00 52 1007.1
20260504175820 77 213 11.0 14.0 0.00 0.00 0.00 50 1007.0
20260504175316 77 221 8.0 11.0 0.00 0.00 0.00 50 1007.0
20260504174815 76 189 13.0 15.0 0.00 0.00 0.00 49 1007.0
20260504174311 76 145 12.0 16.0 0.00 0.00 0.00 51 1007.2
20260504173808 76 191 7.0 11.0 0.00 0.00 0.00 52 1007.3
20260504173305 76 200 8.0 10.0 0.00 0.00 0.00 54 1007.3
20260504172802 76 251 16.0 21.0 0.00 0.00 0.00 50 1007.5
20260504172259 76 207 6.0 8.0 0.00 0.00 0.00 51 1007.2
20260504171754 76 223 14.0 21.0 0.00 0.00 0.00 51 1007.4
20260504171252 76 147 10.0 14.0 0.00 0.00 0.00 51 1007.7
20260504170749 75 213 9.0 14.0 0.00 0.00 0.00 53 1007.3
20260504170246 75 213 8.0 10.0 0.00 0.00 0.00 54 1007.6
20260504160204 74 233 4.0 5.0 0.00 0.00 0.00 51 1008.0
20260504151132 72 202 13.0 15.0 0.00 0.00 0.00 52 1008.5
20260504150630 72 193 2.0 7.0 0.00 0.00 0.00 54 1008.6
20260504150126 71 205 13.0 15.0 0.00 0.00 0.00 52 1008.5
20260504141055 68 194 10.0 11.0 0.00 0.00 0.00 57 1009.0
20260504140551 68 227 7.0 10.0 0.00 0.00 0.00 57 1008.9
20260504130516 64 190 11.0 12.0 0.00 0.00 0.00 60 1009.4
20260504110403 61 124 4.0 5.0 0.00 0.00 0.00 63 1009.5
20260504100320 63 218 4.0 5.0 0.00 0.00 0.00 60 1010.0
20260504081714 64 223 4.0 4.0 0.00 0.00 0.00 56 1010.5
20260504081210 64 222 3.0 4.0 0.00 0.00 0.00 56 1010.3
20260504080706 64 226 4.0 5.0 0.00 0.00 0.00 56 1010.2
20260504080203 64 244 0.0 1.0 0.00 0.00 0.00 56 1010.3
20260504070131 64 222 1.0 1.0 0.00 0.00 0.00 56 1010.9
20260504050519 67 197 3.0 4.0 0.00 0.00 0.00 55 1011.6
20260504050016 67 218 3.0 3.0 0.00 0.00 0.00 54 1011.4
20260504045513 67 225 5.0 7.0 0.00 0.00 0.00 55 1011.5
20260504045008 67 198 5.0 7.0 0.00 0.00 0.00 55 1011.6
20260504044506 67 248 2.0 4.0 0.00 0.00 0.00 54 1011.7
20260504044003 67 203 2.0 4.0 0.00 0.00 0.00 54 1011.6
20260504043500 67 232 3.0 4.0 0.00 0.00 0.00 54 1011.6
20260504042958 67 179 2.0 3.0 0.00 0.00 0.00 54 1011.8
20260504042454 67 267 2.0 3.0 0.00 0.00 0.00 54 1011.6
20260504041951 67 257 4.0 5.0 0.00 0.00 0.00 53 1011.6
20260504041447 67 200 2.0 3.0 0.00 0.00 0.00 53 1011.6
20260504040943 67 245 3.0 4.0 0.00 0.00 0.00 53 1011.6
20260504040441 68 214 2.0 4.0 0.00 0.00 0.00 53 1011.8
20260504035936 68 210 4.0 5.0 0.00 0.00 0.00 53 1011.8
20260504035434 68 245 3.0 3.0 0.00 0.00 0.00 53 1011.7
20260504034931 68 222 4.0 4.0 0.00 0.00 0.00 52 1011.7
20260504034428 68 188 5.0 5.0 0.00 0.00 0.00 52 1011.7
20260504033925 68 200 3.0 4.0 0.00 0.00 0.00 53 1011.7
20260504033423 67 220 5.0 5.0 0.00 0.00 0.00 53 1011.8
20260504032920 67 204 1.0 3.0 0.00 0.00 0.00 53 1011.7
20260504032417 67 218 1.0 1.0 0.00 0.00 0.00 53 1011.7
20260504031913 67 240 1.0 1.0 0.00 0.00 0.00 53 1011.8
20260504031411 67 211 3.0 4.0 0.00 0.00 0.00 54 1011.8
20260504030907 67 222 2.0 3.0 0.00 0.00 0.00 53 1011.7
20260504030404 67 224 0.0 1.0 0.00 0.00 0.00 53 1011.9
20260504025900 68 243 1.0 1.0 0.00 0.00 0.00 53 1011.9
20260504025357 68 233 1.0 1.0 0.00 0.00 0.00 53 1011.6
20260504024854 68 227 4.0 7.0 0.00 0.00 0.00 52 1011.7
20260504024350 68 190 2.0 3.0 0.00 0.00 0.00 53 1011.7
20260504023848 68 179 2.0 3.0 0.00 0.00 0.00 54 1011.6
20260504023344 68 203 2.0 3.0 0.00 0.00 0.00 54 1011.6
20260504022839 68 233 2.0 3.0 0.00 0.00 0.00 56 1011.4
20260504022337 68 174 2.0 3.0 0.00 0.00 0.00 56 1011.5
20260504021833 67 235 0.0 0.0 0.00 0.00 0.00 57 1011.5
20260504021331 67 202 1.0 1.0 0.00 0.00 0.00 58 1011.5
20260504020828 67 163 3.0 4.0 0.00 0.00 0.00 58 1011.3
20260504020324 67 221 0.0 0.0 0.00 0.00 0.00 59 1011.4
20260504015820 67 218 0.0 0.0 0.00 0.00 0.00 58 1011.3
20260504015317 68 206 0.0 1.0 0.00 0.00 0.00 58 1011.3
20260504014813 69 206 1.0 1.0 0.00 0.00 0.00 59 1011.2
20260504014309 69 214 1.0 1.0 0.00 0.00 0.00 54 1011.4
20260504013807 69 189 2.0 3.0 0.00 0.00 0.00 54 1011.2
20260504013305 70 223 0.0 0.0 0.00 0.00 0.00 54 1011.2
20260504012800 70 197 2.0 3.0 0.00 0.00 0.00 53 1011.4
20260504012259 71 212 1.0 1.0 0.00 0.00 0.00 52 1011.1
20260504011755 72 192 2.0 3.0 0.00 0.00 0.00 50 1011.4
20260504011252 72 225 0.0 0.0 0.00 0.00 0.00 49 1011.3
20260504010748 72 213 1.0 3.0 0.00 0.00 0.00 49 1011.1
20260504010244 73 217 1.0 1.0 0.00 0.00 0.00 48 1011.1
20260504005741 73 219 2.0 3.0 0.00 0.00 0.00 47 1011.2
20260504005238 73 201 1.0 1.0 0.00 0.00 0.00 47 1011.1
20260504004736 74 166 1.0 1.0 0.00 0.00 0.00 46 1011.2
20260504004232 74 198 4.0 5.0 0.00 0.00 0.00 45 1011.1
20260504003729 75 202 3.0 4.0 0.00 0.00 0.00 44 1011.2
20260504003226 75 165 2.0 3.0 0.00 0.00 0.00 44 1011.2
20260504002723 76 227 2.0 4.0 0.00 0.00 0.00 43 1011.2
20260504002219 76 241 3.0 5.0 0.00 0.00 0.00 43 1011.3
20260504001718 77 230 4.0 5.0 0.00 0.00 0.00 41 1011.2
20260504001214 77 191 3.0 4.0 0.00 0.00 0.00 41 1011.2
20260504000711 77 179 4.0 4.0 0.00 0.00 0.00 40 1011.4
20260504000208 77 253 3.0 4.0 0.00 0.00 0.00 40 1011.5
20260503235706 78 216 5.0 5.0 0.00 0.00 0.00 38 1011.5
20260503235203 78 179 5.0 5.0 0.00 0.00 0.00 39 1011.6
20260503234700 79 260 2.0 3.0 0.00 0.00 0.00 38 1011.8
20260503234159 79 217 4.0 7.0 0.00 0.00 0.00 38 1011.9
20260503233655 78 330 2.0 3.0 0.00 0.00 0.00 39 1011.7
20260503233151 78 281 0.0 0.0 0.00 0.00 0.00 37 1011.9
20260503232648 78 269 0.0 1.0 0.00 0.00 0.00 38 1012.0
20260503232145 78 271 1.0 1.0 0.00 0.00 0.00 37 1012.0
20260503231643 79 317 1.0 1.0 0.00 0.00 0.00 36 1012.0
20260503231139 79 264 0.0 1.0 0.00 0.00 0.00 35 1012.0
20260503230636 79 271 3.0 4.0 0.00 0.00 0.00 36 1012.0
20260503230134 79 259 4.0 5.0 0.00 0.00 0.00 33 1012.0
20260503225631 80 194 4.0 5.0 0.00 0.00 0.00 32 1012.2
20260503225130 80 241 1.0 1.0 0.00 0.00 0.00 32 1011.9
20260503224628 80 270 3.0 5.0 0.00 0.00 0.00 32 1012.1
20260503224126 81 222 3.0 4.0 0.00 0.00 0.00 30 1012.1
20260503223624 81 284 2.0 4.0 0.00 0.00 0.00 29 1012.1
20260503223119 82 302 4.0 4.0 0.00 0.00 0.00 31 1012.1
20260503222617 81 276 3.0 5.0 0.00 0.00 0.00 30 1012.2
20260503222115 82 277 1.0 1.0 0.00 0.00 0.00 35 1012.2
20260503221613 83 203 3.0 4.0 0.00 0.00 0.00 34 1012.0
20260503221110 83 262 1.0 1.0 0.00 0.00 0.00 36 1012.2
20260503220607 82 233 4.0 5.0 0.00 0.00 0.00 36 1012.1
20260503220103 81 222 1.0 1.0 0.00 0.00 0.00 37 1012.3
20260503215600 80 161 7.0 10.0 0.00 0.00 0.00 34 1012.4
20260503215057 81 241 6.0 10.0 0.00 0.00 0.00 36 1012.5
20260503214555 82 207 3.0 4.0 0.00 0.00 0.00 36 1012.4
20260503214051 82 274 2.0 4.0 0.00 0.00 0.00 33 1012.5